Regional Weather Roundup
Issued by NWS Boston, MA

Home | Current Version | Previous Version | Text Only | Print | Product List | Glossary On
Versions: 1 2 3 4 5 6 7 8 9 10 11 12 13 14 15 16 17 18 19 20 21 22 23 24 25 26 27 28
000
ASUS41 KBOX 222104
RWRBOX

REGIONAL WEATHER ROUNDUP
NATIONAL WEATHER SERVICE BOSTON/NORTON MA
500 PM EDT SUN MAY 22 2022

NOTE:  "FAIR" INDICATES FEW OR NO CLOUDS BELOW 12,000 FEET WITH NO
SIGNIFICANT WEATHER AND/OR OBSTRUCTIONS TO VISIBILITY.

MAZALL-222200-
EASTERN MASSACHUSETTS

CITY           SKY/WX    TMP DP  RH WIND       PRES   REMARKS
BOSTON         MOSUNNY   85  71  63 S14       29.85F THUNDER HX  90
BEVERLY        SUNNY     88  68  51 S14G22    29.84F HX  91
LAWRENCE       MOSUNNY   93  63  36 SW15      29.85F HX  94
BEDFORD        SUNNY     94  62  34 SW12G18   29.85S HX  94
BLUE HILL      NOT AVBL
NORWOOD        SUNNY     90  67  46 S13       29.85F HX  93
MARSHFIELD     SUNNY     88  66  48 S13G20    29.88S HX  90
PLYMOUTH       SUNNY     79  65  62 S9G18     29.92S
TAUNTON        SUNNY     82  65  56 S16G22    29.91R
NEW BEDFORD    SUNNY     75  64  68 SW16      29.92F
$$

MAZALL-222200-
CAPE COD AND THE ISLANDS

CITY           SKY/WX    TMP DP  RH WIND       PRES   REMARKS
FALMOUTH       SUNNY     82  66  57 W18       29.95
HYANNIS        SUNNY     67  59  75 S12       29.93F
CHATHAM        SUNNY     66  58  75 SW8       29.96F
PROVINCETOWN   SUNNY     72  62  71 S13       29.92S
NANTUCKET      SUNNY     63  58  83 SW10      29.98F
MARTHAS VNYRD  SUNNY     66  60  81 SW17G23   29.97S
$$

MAZALL-222200-
CENTRAL AND WESTERN MASSACHUSETTS

CITY           SKY/WX    TMP DP  RH WIND       PRES   REMARKS
WORCESTER      SUNNY     88  59  37 SW14      29.91F
FITCHBURG      SUNNY     92  58  31 SW12G21   29.87F HX  91
ORANGE         MOSUNNY   90  59  35 SW9       29.88F
SPRINGFIELD    MOSUNNY   92  58  31 SW16      29.85F HX  91
WESTFIELD      SUNNY     92  58  31 SW16      29.86F HX  91
NORTH ADAMS    MOSUNNY   88  62  41 CALM      29.88F
PITTSFIELD     MOSUNNY   85  62  46 SW7       29.90F
$$

RIZALL-222200-
RHODE ISLAND

CITY           SKY/WX    TMP DP  RH WIND       PRES   REMARKS
PROVIDENCE     SUNNY     85  66  53 S16       29.91F
NEWPORT        SUNNY     69  62  78 S13       29.94F
BLOCK ISLAND   SUNNY     64  58  80 SW17      29.97S
SMITHFIELD     SUNNY     86  69  56 VRB5      29.91S HX  90
WESTERLY       SUNNY     71  61  70 SW9       29.94F
$$

CTZALL-222200-
CONNECTICUT

CITY           SKY/WX    TMP DP  RH WIND       PRES   REMARKS
BRADLEY INTL   MOSUNNY   93  63  36 SW13      29.87F HX  94
HARTFORD       SUNNY     92  64  39 S13       29.87F HX  93
BRIDGEPORT     SUNNY     82  67  60 S15       29.91F
DANBURY        SUNNY     90  64  42 SW9       29.92F HX  91
GROTON         SUNNY     71  63  75 S6        29.93F
NEW HAVEN      SUNNY     83  71  67 S13       29.92F
CHESTER        FAIR      86  70  58 S12       29.94F HX  90
MERIDEN        SUNNY     87  64  46 S13G20    29.90F
WILLIMANTIC    SUNNY     88  68  51 S15       29.89F HX  91
OXFORD         MOSUNNY   87  67  51 VRB7      29.94F HX  90
$$

MEZ002-015-021-024-NHZ003-005-008-011-012-014-VTZ005-008-222200-
NORTHERN NEW ENGLAND

CITY           SKY/WX    TMP DP  RH WIND       PRES   REMARKS
PORTLAND ME    MOSUNNY   72  62  71 SE8       29.84F
BANGOR ME      MOSUNNY   76  63  64 S15       29.84F
CONCORD NH     SUNNY     91  62  37 S10G21    29.83F HX  91
MANCHESTER NH  MOSUNNY   95  59  30 SW9       29.83F HX  94
NASHUA NH      MOSUNNY   93  64  38 W8G14     29.85F HX  94
PORTSMOUTH NH  MOSUNNY   83  65  52 SE8       29.85F
JAFFREY NH     SUNNY     91  57  31 SW9       29.90F
KEENE NH       MOSUNNY   91  64  40 SW12      29.85F HX  92
BURLINGTON VT  CLOUDY    77  63  61 NW15G31   29.89R
MT. WASHINGTON NOT AVBL
$$

NYZ052-076-222200-
EASTERN NEW YORK

CITY           SKY/WX    TMP DP  RH WIND       PRES   REMARKS
ALBANY         PTSUNNY   88  65  46 S5        29.86F HX  90
NEW YORK CITY  MOSUNNY   85  64  49 SE12      29.92F
$$

ANZALL-222200-
MARINE OBSERVATIONS

STATION/POSITION TIME  TEMP    WIND        PRES    VSBY  WAVE
                       AIR SEA DIR/SP/G                  HT/PER
                 (UTC) (F)     (DEG/KT/KT) (MB)    (MI)  (FT/S)
BOSTON BUOY      2040      53  170/ 14/ 16 1011.5F
BUZZARDS BAY     2000   58     220/ 12/ 13 1015.4S
NANTUCKET SOUND  2040   59 55  190/ 16/ 19 1014.1F
MASS BAY-STELLWA NOT AVBL
ISLE OF SHOALS   2000   61     340/  1/  1 1010.8F
S OF BLOCK IS    2026      56                N/A           3/ 6
$$

......................KEY.........................
  SKY/WX - SKY CONDITION/PRESENT WEATHER
  TMP    - TEMPERATURE IN FAHRENHEIT
  DWPT   - DEWPOINT IN FAHRENHEIT
  RH     - RELATIVE HUMIDITY IN PERCENT
  WIND   - DIRECTION AND SPEED IN MPH
  PRES   - MEAN SEA LEVEL PRESSURE IN INCHES OF HG
  WCI    - WIND CHILL INDEX
  VSB    - VISIBILITY IN MILES
  HX     - HEAT INDEX
  TC     - TEMPERATURE IN CELSIUS
  VRB    - VARIABLE WIND DIRECTION
  N/A    - NOT AVAILABLE



USA.gov is the U.S. government's official web portal to all federal, state and local government web resources and services.